Flag for Macedonia, Republic of Weather past 2 weeks in Skopje, Macedonia, Republic of

Now
68 °F

Strong thunderstorms. Mostly cloudy.


Feels Like: 68 °F
Forecast: 60 / 90 °F
Wind: 10 mph from West

Location: Skopje-Petrovec

Current Time: Jul 25, 2014 at 8:39:56 PM

Latest Report: Jul 25, 2014 at 8:00 PM


Visibility: 2 mi

Pressure: 29.98 "Hg

Humidity: 83%

Dew point: 63 °F

Location of SkopjeLocation

Historic Weather in Skopje — Graph

°F

Skopje temperature yesterday

Maximum temperature yesterday: 84 °F (at 1:30 PM)
Minimum temperature yesterday: 61 °F (at 3:30 AM)
Average temperature yesterday: 73 °F

Past Weeks' High & Low Weather Summary

 TemperatureHumidityPressure
High95 °F (Jul 21, 3:30 PM)100% (Jul 14, 6:00 AM)30.04 "Hg (Jul 14, 6:00 AM)
Low54 °F (Jul 12, 4:30 AM)20% (Jul 21, 3:30 PM)29.62 "Hg (Jul 10, 7:00 PM)
Average73 °F65%29.89 "Hg
* Reported Jul 10 7:00 PM — Jul 25 7:30 PM, Skopje, Weather by CustomWeather, © 2014

Note: Actual official high and low records may vary slightly from our data, if they occured in-between our weather recording intervals... More about our weather records

Advertising

Skopje weather history for previous 24 hours

 ConditionsComfort  
Time TempWeatherWind HumidityBarometerVisibility
7:30 PM
Jul 25
79 °FThunderstorms. Broken clouds.5 mph51%29.92 "HgN/A
7:00 PM81 °FPartly sunny.6 mph48%29.89 "HgN/A
6:30 PM84 °FScattered clouds.10 mph40%29.86 "HgN/A
6:00 PM86 °FThundershowers. Scattered clouds.12 mph38%29.86 "HgN/A
5:30 PM88 °FScattered clouds.9 mph35%29.83 "HgN/A
5:00 PM88 °FScattered clouds.5 mph33%29.83 "HgN/A
4:30 PM88 °FThundershowers. Passing clouds.3 mph31%29.86 "HgN/A
4:00 PM88 °FPassing clouds.1 mph29%29.83 "HgN/A
3:30 PM90 °FPassing clouds.2 mph27%29.83 "HgN/A
3:00 PM90 °FPassing clouds.3 mph27%29.86 "HgN/A
2:30 PM88 °FPassing clouds.6 mph31%29.86 "HgN/A
2:00 PM88 °FPassing clouds.5 mph29%29.86 "HgN/A
1:30 PM88 °FPassing clouds.2 mph29%29.86 "HgN/A
1:00 PM86 °FPassing clouds.2 mph33%29.89 "HgN/A
12:30 PM86 °FPassing clouds.2 mph38%29.89 "HgN/A
12:00 PM84 °FPassing clouds.5 mph37%29.92 "HgN/A
11:30 AM82 °FPassing clouds.2 mph45%29.92 "HgN/A
11:00 AM81 °FPassing clouds.2 mph48%29.92 "HgN/A
10:30 AM79 °FPassing clouds.1 mph51%29.92 "HgN/A
10:00 AM77 °FSunny.3 mph54%29.92 "Hg10 mi
9:30 AM75 °FSunny.1 mph57%29.95 "Hg10 mi
9:00 AM73 °FSunny.2 mph61%29.95 "Hg10 mi
8:30 AM72 °FSunny.1 mph69%29.95 "Hg10 mi
8:00 AM70 °FSunny.No wind73%29.95 "Hg10 mi
7:30 AM66 °FSunny.1 mph78%29.95 "Hg10 mi
7:00 AM66 °FSunny.2 mph78%29.95 "Hg10 mi
6:30 AM61 °FSunny.1 mph94%29.92 "Hg10 mi
5:30 AM59 °FClear.2 mph94%29.92 "Hg10 mi
5:00 AM61 °FClear.2 mph88%29.92 "Hg10 mi
4:00 AM63 °FClear.2 mph83%29.89 "Hg10 mi
3:30 AM63 °FClear.2 mph83%29.89 "Hg10 mi
3:00 AM63 °FClear.No wind88%29.89 "Hg10 mi
2:30 AM63 °FClear.2 mph88%29.89 "Hg10 mi
1:30 AM64 °FClear.2 mph83%29.89 "Hg10 mi
12:00 AM68 °FClear.2 mph78%29.92 "Hg10 mi
11:30 PM
Jul 24
70 °FClear.2 mph69%29.92 "Hg10 mi
11:00 PM70 °FClear.1 mph73%29.89 "Hg10 mi
10:30 PM72 °FClear.7 mph69%29.89 "Hg10 mi
10:00 PM72 °FClear.7 mph69%29.89 "Hg10 mi
9:30 PM73 °FClear.7 mph65%29.89 "Hg10 mi
9:00 PM73 °FClear.8 mph65%29.86 "Hg10 mi
8:30 PM75 °FSunny.8 mph61%29.86 "Hg10 mi
8:00 PM77 °FPassing clouds.7 mph57%29.83 "HgN/A
Weather by CustomWeather, © 2014

See weather overviewHow to use our weather pages